GW2341 Weather Reports


Display with metric or nautical units.
time (UTC)temp
F
wind
direction
speed
MPH
gust
MPH
rain 1hr
in
rain 24hr
in
rain mn
in
humidity
%
barometer
mb
20260506033356 67 177 0.0 0.0 0.00 0.00 0.00 64 1014.0
20260506032853 67 178 0.0 0.0 0.00 0.00 0.00 63 1013.9
20260506032350 68 178 0.0 1.0 0.00 0.00 0.00 63 1014.0
20260506031847 68 178 0.0 0.0 0.00 0.00 0.00 62 1014.0
20260506031344 68 178 0.0 0.0 0.00 0.00 0.00 61 1014.2
20260506030842 68 178 0.0 0.0 0.00 0.00 0.00 61 1014.1
20260506030340 69 178 0.0 0.0 0.00 0.00 0.00 61 1014.3
20260506025836 69 172 0.0 0.0 0.00 0.00 0.00 60 1014.3
20260506025333 69 172 0.0 0.0 0.00 0.00 0.00 60 1014.5
20260506024830 69 183 0.0 2.0 0.00 0.00 0.00 58 1014.4
20260506024326 69 183 0.0 0.0 0.00 0.00 0.00 59 1014.4
20260506023823 69 180 0.0 1.0 0.00 0.00 0.00 59 1014.4
20260506023320 69 180 0.0 1.0 0.00 0.00 0.00 59 1014.3
20260506022816 70 179 0.0 0.0 0.00 0.00 0.00 59 1014.1
20260506022314 70 183 0.0 1.0 0.00 0.00 0.00 59 1014.1
20260506021812 70 169 0.0 1.0 0.00 0.00 0.00 58 1014.1
20260506021309 69 170 0.0 0.0 0.00 0.00 0.00 59 1013.9
20260506020805 70 140 0.0 0.0 0.00 0.00 0.00 58 1013.9
20260506020303 70 139 0.0 1.0 0.00 0.00 0.00 58 1013.7
20260506015801 70 157 0.0 0.0 0.00 0.00 0.00 57 1013.8
20260506015258 70 171 0.0 0.0 0.00 0.00 0.00 57 1013.8
20260506014755 71 152 0.0 0.0 0.00 0.00 0.00 57 1014.2
20260506014251 71 173 0.0 0.0 0.00 0.00 0.00 57 1014.0
20260506013748 72 173 0.0 0.0 0.00 0.00 0.00 55 1014.2
20260506013246 72 174 0.0 2.0 0.00 0.00 0.00 55 1014.2
20260506012742 72 168 0.0 0.0 0.00 0.00 0.00 54 1014.2
20260506012239 72 168 0.0 0.0 0.00 0.00 0.00 55 1014.4
20260506011736 72 166 0.0 0.0 0.00 0.00 0.00 54 1014.2
20260506011232 72 166 0.0 0.0 0.00 0.00 0.00 53 1014.4
20260506010731 72 168 0.0 0.0 0.00 0.00 0.00 54 1014.3
20260506010228 72 168 0.0 0.0 0.00 0.00 0.00 53 1014.2
20260506005725 72 168 0.0 0.0 0.00 0.00 0.00 53 1014.3
20260506005222 72 168 0.0 0.0 0.00 0.00 0.00 53 1014.2
20260506004717 72 169 0.0 0.0 0.00 0.00 0.00 53 1014.2
20260506004215 72 169 0.0 0.0 0.00 0.00 0.00 52 1014.2
20260506003711 73 169 0.0 0.0 0.00 0.00 0.00 52 1014.3
20260506003208 73 169 0.0 0.0 0.00 0.00 0.00 50 1014.1
20260506002704 73 169 0.0 0.0 0.00 0.00 0.00 50 1014.4
20260506002200 74 193 0.0 1.0 0.00 0.00 0.00 49 1014.2
20260506001656 74 199 1.0 2.0 0.00 0.00 0.00 48 1014.3
20260506001154 74 180 0.0 1.0 0.00 0.00 0.00 49 1014.3
20260506000650 74 184 0.0 0.0 0.00 0.00 0.00 48 1014.0
20260506000148 75 184 0.0 0.0 0.00 0.00 0.00 48 1014.0
20260505235646 75 193 1.0 2.0 0.00 0.00 0.00 47 1014.2
20260505235143 75 201 0.0 2.0 0.00 0.00 0.00 46 1014.1
20260505234639 75 191 1.0 5.0 0.00 0.00 0.00 46 1014.0
20260505234136 76 196 3.0 5.0 0.00 0.00 0.00 45 1014.0
20260505233633 75 181 2.0 3.0 0.00 0.00 0.00 46 1014.1
20260505233131 76 93 1.0 3.0 0.00 0.00 0.00 45 1013.9
20260505232628 76 163 0.0 0.0 0.00 0.00 0.00 44 1013.8
20260505232126 77 198 4.0 5.0 0.00 0.00 0.00 42 1013.6
20260505231622 77 183 0.0 2.0 0.00 0.00 0.00 43 1013.8
20260505231121 78 206 1.0 6.0 0.00 0.00 0.00 41 1013.9
20260505230619 78 303 5.0 11.0 0.00 0.00 0.00 40 1013.8
20260505230115 79 152 4.0 7.0 0.00 0.00 0.00 40 1013.8
20260505225612 78 184 0.0 3.0 0.00 0.00 0.00 40 1013.8
20260505225108 79 195 5.0 10.0 0.00 0.00 0.00 39 1013.9
20260505224605 80 163 3.0 5.0 0.00 0.00 0.00 39 1014.0
20260505224102 79 169 1.0 2.0 0.00 0.00 0.00 40 1013.9
20260505223554 79 192 3.0 5.0 0.00 0.00 0.00 40 1013.8
20260505223050 80 267 3.0 3.0 0.00 0.00 0.00 38 1013.7
20260505222547 80 208 2.0 8.0 0.00 0.00 0.00 39 1013.9
20260505222043 79 231 3.0 14.0 0.00 0.00 0.00 38 1013.9
20260505221540 80 191 3.0 9.0 0.00 0.00 0.00 38 1013.9
20260505221036 80 123 4.0 7.0 0.00 0.00 0.00 39 1013.9
20260505220534 80 185 2.0 6.0 0.00 0.00 0.00 38 1014.0
20260505220032 80 259 3.0 6.0 0.00 0.00 0.00 40 1013.8
20260505215529 81 140 4.0 6.0 0.00 0.00 0.00 39 1013.9
20260505215027 80 161 3.0 5.0 0.00 0.00 0.00 40 1013.9
20260505214525 80 162 1.0 3.0 0.00 0.00 0.00 39 1014.2
20260505214021 80 109 3.0 5.0 0.00 0.00 0.00 39 1014.0
20260505213519 80 283 3.0 7.0 0.00 0.00 0.00 39 1013.8
20260505213015 80 206 5.0 14.0 0.00 0.00 0.00 39 1014.1
20260505212512 82 256 7.0 8.0 0.00 0.00 0.00 38 1014.1
20260505212009 80 181 1.0 6.0 0.00 0.00 0.00 39 1014.1
20260505211507 80 251 3.0 13.0 0.00 0.00 0.00 38 1014.2
20260505211003 81 266 2.0 3.0 0.00 0.00 0.00 36 1014.1
20260505210500 81 135 2.0 3.0 0.00 0.00 0.00 38 1014.1
20260505205956 81 191 2.0 6.0 0.00 0.00 0.00 38 1014.3
20260505205455 80 202 1.0 7.0 0.00 0.00 0.00 42 1014.2
20260505204951 79 148 1.0 5.0 0.00 0.00 0.00 39 1014.3
20260505204449 80 197 2.0 5.0 0.00 0.00 0.00 39 1014.2
20260505203946 81 266 5.0 7.0 0.00 0.00 0.00 37 1014.1
20260505203443 80 74 0.0 6.0 0.00 0.00 0.00 37 1014.2
20260505202939 79 223 2.0 7.0 0.00 0.00 0.00 39 1014.5
20260505202436 79 168 3.0 6.0 0.00 0.00 0.00 38 1014.3
20260505201932 78 225 2.0 5.0 0.00 0.00 0.00 38 1014.5
20260505201429 78 207 3.0 6.0 0.00 0.00 0.00 40 1014.5
20260505200927 79 146 1.0 5.0 0.00 0.00 0.00 40 1014.6
20260505200424 79 258 4.0 6.0 0.00 0.00 0.00 39 1014.4
20260505195920 79 178 3.0 6.0 0.00 0.00 0.00 40 1014.5
20260505195417 79 138 1.0 2.0 0.00 0.00 0.00 39 1014.7
20260505194915 80 268 4.0 7.0 0.00 0.00 0.00 38 1015.0
20260505194412 81 248 4.0 6.0 0.00 0.00 0.00 38 1015.1
20260505193911 81 176 2.0 7.0 0.00 0.00 0.00 38 1015.1
20260505193410 81 295 4.0 7.0 0.00 0.00 0.00 36 1015.2
20260505192907 80 268 4.0 11.0 0.00 0.00 0.00 37 1015.2
20260505192405 79 238 3.0 5.0 0.00 0.00 0.00 37 1015.3
20260505191902 79 270 3.0 9.0 0.00 0.00 0.00 38 1015.5
20260505191401 80 257 2.0 7.0 0.00 0.00 0.00 38 1015.4
20260505190857 79 178 1.0 3.0 0.00 0.00 0.00 42 1015.5
20260505190353 79 218 4.0 7.0 0.00 0.00 0.00 39 1015.6
20260505185848 79 207 5.0 8.0 0.00 0.00 0.00 39 1015.8
20260505185345 78 215 1.0 3.0 0.00 0.00 0.00 42 1015.7
20260505184841 77 184 2.0 6.0 0.00 0.00 0.00 41 1015.7
20260505184338 79 209 2.0 6.0 0.00 0.00 0.00 39 1015.8
20260505183835 79 285 7.0 8.0 0.00 0.00 0.00 37 1015.7
20260505183332 79 217 2.0 7.0 0.00 0.00 0.00 40 1015.7
20260505182829 78 345 2.0 8.0 0.00 0.00 0.00 39 1015.8
20260505182326 78 208 2.0 3.0 0.00 0.00 0.00 42 1015.7
20260505181823 78 165 2.0 3.0 0.00 0.00 0.00 39 1016.1
20260505181320 77 188 5.0 7.0 0.00 0.00 0.00 40 1016.1
20260505180816 78 227 5.0 6.0 0.00 0.00 0.00 42 1016.2
20260505180313 77 181 0.0 6.0 0.00 0.00 0.00 42 1016.6
20260505175809 76 215 5.0 7.0 0.00 0.00 0.00 43 1016.5
20260505175306 76 165 0.0 7.0 0.00 0.00 0.00 44 1016.7
20260505174802 78 198 4.0 10.0 0.00 0.00 0.00 42 1016.8
20260505174300 77 192 2.0 5.0 0.00 0.00 0.00 41 1016.9
20260505173755 77 246 3.0 6.0 0.00 0.00 0.00 40 1016.9
20260505173252 77 205 4.0 7.0 0.00 0.00 0.00 39 1016.9
20260505172749 77 212 5.0 10.0 0.00 0.00 0.00 40 1017.1
20260505172246 76 172 1.0 8.0 0.00 0.00 0.00 39 1016.9
20260505171746 76 182 1.0 7.0 0.00 0.00 0.00 44 1016.7
20260505171243 76 234 4.0 7.0 0.00 0.00 0.00 42 1017.0
20260505170740 76 295 1.0 7.0 0.00 0.00 0.00 41 1016.9
20260505170237 77 281 4.0 5.0 0.00 0.00 0.00 40 1016.7
20260505165732 76 271 3.0 5.0 0.00 0.00 0.00 41 1016.9
20260505165228 76 188 3.0 5.0 0.00 0.00 0.00 42 1016.8
20260505164724 77 234 3.0 7.0 0.00 0.00 0.00 43 1016.8
20260505164221 76 185 0.0 1.0 0.00 0.00 0.00 43 1016.7
20260505163719 76 180 2.0 5.0 0.00 0.00 0.00 39 1016.7
20260505163217 76 240 3.0 14.0 0.00 0.00 0.00 40 1017.0
20260505162714 75 215 3.0 6.0 0.00 0.00 0.00 47 1017.1
20260505162211 75 257 3.0 3.0 0.00 0.00 0.00 45 1016.8
20260505161708 75 234 2.0 7.0 0.00 0.00 0.00 43 1017.2
20260505161206 75 192 2.0 5.0 0.00 0.00 0.00 47 1017.1
20260505160703 74 159 3.0 3.0 0.00 0.00 0.00 46 1017.2
20260505160201 73 282 5.0 6.0 0.00 0.00 0.00 48 1017.3
20260505153140 74 197 0.0 1.0 0.00 0.00 0.00 52 1017.5
20260505152636 74 98 1.0 2.0 0.00 0.00 0.00 51 1017.4
20260505152132 72 110 1.0 2.0 0.00 0.00 0.00 53 1017.3
20260505151628 71 277 3.0 5.0 0.00 0.00 0.00 55 1017.6
20260505151125 71 226 1.0 6.0 0.00 0.00 0.00 56 1017.5
20260505150621 72 211 2.0 3.0 0.00 0.00 0.00 55 1017.7
20260505150119 71 187 0.0 2.0 0.00 0.00 0.00 57 1017.5
20260505140547 66 156 0.0 3.0 0.00 0.00 0.00 67 1017.1
20260505125000 60 218 2.0 5.0 0.00 0.00 0.00 79 1016.9
20260505124457 60 187 0.0 1.0 0.00 0.00 0.00 79 1016.8
20260505123953 60 220 1.0 3.0 0.00 0.00 0.00 79 1016.7
20260505123450 60 183 2.0 5.0 0.00 0.00 0.00 79 1016.6
20260505122946 60 183 1.0 2.0 0.00 0.00 0.00 79 1016.6
20260505122443 59 192 1.0 2.0 0.00 0.00 0.00 79 1016.6
20260505121940 60 179 0.0 0.0 0.00 0.00 0.00 78 1016.6
20260505121437 60 187 0.0 0.0 0.00 0.00 0.00 78 1016.4
20260505120933 59 175 0.0 0.0 0.00 0.00 0.00 80 1016.5
20260505120430 58 183 0.0 0.0 0.00 0.00 0.00 82 1016.7
20260505115928 57 191 1.0 2.0 0.00 0.00 0.00 82 1016.6
20260505115425 57 183 0.0 1.0 0.00 0.00 0.00 82 1016.6
20260505114923 57 191 2.0 3.0 0.00 0.00 0.00 83 1016.4
20260505114419 56 185 1.0 1.0 0.00 0.00 0.00 84 1016.4
20260505113915 55 168 0.0 0.0 0.00 0.00 0.00 86 1016.4
20260505113412 54 185 0.0 0.0 0.00 0.00 0.00 90 1016.2
20260505112908 52 195 0.0 1.0 0.00 0.00 0.00 94 1016.3
20260505112406 51 166 0.0 0.0 0.00 0.00 0.00 95 1016.1
20260505111902 51 166 0.0 0.0 0.00 0.00 0.00 95 1016.3
20260505111357 50 167 0.0 0.0 0.00 0.00 0.00 95 1016.2
20260505110853 50 169 0.0 0.0 0.00 0.00 0.00 94 1016.2
20260505110351 50 172 0.0 0.0 0.00 0.00 0.00 94 1016.4
20260505101821 54 181 0.0 0.0 0.00 0.00 0.00 86 1016.0
20260505101316 54 186 0.0 0.0 0.00 0.00 0.00 86 1016.1
20260505100812 54 187 0.0 1.0 0.00 0.00 0.00 87 1015.6
20260505100309 52 192 1.0 3.0 0.00 0.00 0.00 90 1015.7
20260505095805 51 152 0.0 0.0 0.00 0.00 0.00 91 1015.6
20260505095304 51 152 0.0 0.0 0.00 0.00 0.00 90 1015.6
20260505094758 51 152 0.0 0.0 0.00 0.00 0.00 89 1015.7
20260505094255 51 152 0.0 0.0 0.00 0.00 0.00 89 1015.8
20260505093750 51 152 0.0 0.0 0.00 0.00 0.00 88 1015.7
20260505093248 52 152 0.0 0.0 0.00 0.00 0.00 88 1015.6
20260505092746 52 152 0.0 0.0 0.00 0.00 0.00 87 1015.5
20260505092244 52 151 0.0 0.0 0.00 0.00 0.00 87 1015.5
20260505091740 52 152 0.0 0.0 0.00 0.00 0.00 86 1015.7
20260505091239 52 152 0.0 0.0 0.00 0.00 0.00 86 1015.6
20260505090735 52 152 0.0 0.0 0.00 0.00 0.00 85 1015.5
20260505090234 52 152 0.0 0.0 0.00 0.00 0.00 85 1015.5
20260505085731 52 152 0.0 0.0 0.00 0.00 0.00 85 1015.6
20260505085229 52 153 0.0 0.0 0.00 0.00 0.00 85 1015.4
20260505084726 52 152 0.0 0.0 0.00 0.00 0.00 84 1015.5
20260505084225 52 154 0.0 0.0 0.00 0.00 0.00 84 1015.6
20260505083722 52 154 0.0 0.0 0.00 0.00 0.00 84 1015.6
20260505083218 52 154 0.0 0.0 0.00 0.00 0.00 83 1015.5
20260505082714 53 154 0.0 0.0 0.00 0.00 0.00 83 1015.5
20260505082212 53 154 0.0 0.0 0.00 0.00 0.00 82 1015.5
20260505081707 52 155 0.0 0.0 0.00 0.00 0.00 83 1015.4
20260505081205 52 156 0.0 1.0 0.00 0.00 0.00 82 1015.4
20260505080702 53 156 0.0 0.0 0.00 0.00 0.00 82 1015.5
20260505080158 53 156 0.0 0.0 0.00 0.00 0.00 81 1015.4
20260505075654 53 157 0.0 0.0 0.00 0.00 0.00 81 1015.5
20260505075151 53 156 0.0 0.0 0.00 0.00 0.00 81 1015.2
20260505074648 53 156 0.0 0.0 0.00 0.00 0.00 80 1015.6
20260505074145 53 156 0.0 0.0 0.00 0.00 0.00 79 1015.4
20260505073643 53 156 0.0 0.0 0.00 0.00 0.00 79 1015.1
20260505073141 54 156 0.0 0.0 0.00 0.00 0.00 78 1015.4
20260505072636 53 156 0.0 0.0 0.00 0.00 0.00 78 1015.2
20260505072133 53 156 0.0 0.0 0.00 0.00 0.00 79 1015.3
20260505071628 53 158 0.0 0.0 0.00 0.00 0.00 79 1015.5
20260505071126 53 158 0.0 0.0 0.00 0.00 0.00 78 1015.5
20260505070623 53 157 0.0 0.0 0.00 0.00 0.00 78 1015.1
20260505070119 54 157 0.0 0.0 0.00 0.00 0.00 78 1015.5
20260505065615 54 158 0.0 0.0 0.00 0.00 0.00 78 1015.3
20260505065112 54 158 0.0 0.0 0.00 0.00 0.00 78 1015.4
20260505064609 54 158 0.0 0.0 0.00 0.00 0.00 78 1015.2
20260505064108 53 158 0.0 0.0 0.00 0.00 0.00 79 1015.2
20260505063604 54 158 0.0 0.0 0.00 0.00 0.00 79 1015.3
20260505063100 54 158 0.0 0.0 0.00 0.00 0.00 78 1015.0
20260505062557 54 157 0.0 0.0 0.00 0.00 0.00 79 1015.3
20260505062054 53 167 0.0 1.0 0.00 0.00 0.00 78 1015.5
20260505061552 53 168 0.0 0.0 0.00 0.00 0.00 77 1015.3
20260505061049 54 168 0.0 0.0 0.00 0.00 0.00 77 1015.2
20260505060547 55 168 0.0 0.0 0.00 0.00 0.00 76 1015.3
20260505060044 55 168 0.0 0.0 0.00 0.00 0.00 75 1015.3
20260505055538 56 168 0.0 0.0 0.00 0.00 0.00 75 1015.2
20260505055035 56 168 0.0 0.0 0.00 0.00 0.00 72 1015.3
20260505054533 57 168 0.0 1.0 0.00 0.00 0.00 72 1015.3
20260505054031 58 183 0.0 1.0 0.00 0.00 0.00 69 1015.2
20260505053528 60 184 0.0 0.0 0.00 0.00 0.00 64 1015.1
20260505053024 60 184 0.0 0.0 0.00 0.00 0.00 58 1015.2
20260505052521 61 184 0.0 0.0 0.00 0.00 0.00 58 1015.1
20260505052019 61 183 0.0 0.0 0.00 0.00 0.00 58 1015.4
20260505051515 61 185 0.0 2.0 0.00 0.00 0.00 58 1015.3
20260505051014 62 192 0.0 0.0 0.00 0.00 0.00 57 1015.5
20260505050511 61 185 0.0 0.0 0.00 0.00 0.00 58 1015.5
20260505041439 63 167 0.0 1.0 0.00 0.00 0.00 54 1015.3
20260505040936 63 188 1.0 1.0 0.00 0.00 0.00 53 1015.5
20260505040434 63 171 0.0 3.0 0.00 0.00 0.00 53 1015.4
20260505035930 64 182 0.0 0.0 0.00 0.00 0.00 54 1015.5
20260505035426 64 170 0.0 1.0 0.00 0.00 0.00 53 1015.4
20260505034924 64 199 1.0 2.0 0.00 0.00 0.00 53 1015.8
20260505034420 64 190 0.0 2.0 0.00 0.00 0.00 53 1015.6
20260505033917 64 151 0.0 2.0 0.00 0.00 0.00 52 1015.6